Find Starlink 6037

NORAD ID: 56461 Int'l Des: 2023-064 Owner: SPXS Country: US Constellation: starlink operational
LEOCIRCULAR

Live Position

Loading 3D Globe...

About Starlink 6037

Description loading...

Upcoming Passes

Passes for default location (London). Set your location on the main map for personalized predictions.

Altitude History

Loading altitude history...

Two-Line Element Set

1 56461U 23064P 26125.79406536 -.00004265 00000-0 -34978-3 0 9996
2 56461 70.0000 0.3179 0002918 271.2681 88.8144 14.98338708163800
Epoch: May 5, 2026 • Age: 11 hours

Current Status

Altitude 575.9 km
Velocity 7.57 km/s
Sub-Earth Point -10.12°S, 37.94°E
Launch Date May 10, 2023
Age 2.9 years
Type internet

Technical Details

Classification Payload
Mass 305.00 kg
Dry Mass 290.00 kg
Total Mass 305.00 kg
Length 0.20 m
Diameter 2.80 m
Span 9.00 m
Shape Box + pan
Manufacturer SPXS
Bus Type Starlink
Phase Status In Orbit
Owner/State SPXS/US

Most Searched